軌道要素
Epoch 2013 May 28.0 TT = JDT 2456440.5
T 2013 June 13.53325 TT MPCW
q 3.7143691 (2000.0) P Q
n 0.08784776 Peri. 298.86013 -0.32146841 +0.93912902
a 5.0116677 Node 311.86099 -0.80217860 -0.33811293
e 0.2588557 Incl. 9.36743 -0.50315758 -0.06096172
P 11.22
From 183 observations 2014 June 20-2016 Nov. 6, mean residual 0".5.
|